Regional Weather Roundup
Issued by NWS

Home | Current Version | Previous Version | Graphics & Text | Print | Product List | Glossary On
Versions: 1 2 3 4 5 6 7 8 9 10 11 12 13 14 15 16 17 18 19 20 21 22 23 24 25 26 27 28 29 30 31 32 33 34 35 36 37 38 39 40 41 42 43 44 45 46 47 48 49 50
000
ASUS43 KMKX 212011
RWRWI

WISCONSIN REGIONAL WEATHER ROUNDUP
NATIONAL WEATHER SERVICE MILWAUKEE/SULLIVAN WI
300 PM CDT THU AUG 21 2014

NOTE: "FAIR" INDICATES FEW OR NO CLOUDS BELOW 12,000 FEET WITH NO
SIGNIFICANT WEATHER AND/OR OBSTRUCTIONS TO VISIBILITY.

WIZ001-002-006>008-014>016-023>028-212100-
NORTHWEST WISCONSIN

CITY           SKY/WX    TMP DP  RH WIND       PRES   REMARKS
SUPERIOR ARPT  CLOUDY    62  60  94 NE12G21   29.88S
ASHLAND        CLOUDY    66  63  90 NE9       29.90S
HAYWARD        CLOUDY    73  68  84 E8        29.88R
SIREN          CLOUDY    74  69  84 E3        29.84S
RICE LAKE      CLOUDY    75  68  78 SE8       29.86S
LADYSMITH      PTSUNNY   77  68  73 SE8       29.89F
EAU CLAIRE     CLOUDY    77  69  76 SE14      29.83S
MENOMONIE      CLOUDY    76  69  80 E9        29.83S
NEW RICHMOND   CLOUDY    73  69  89 E10G16    29.83R
OSCEOLA        CLOUDY    74  71  93 E12       29.84R
$$

WIZ003>005-009-010-017-018-212100-
NORTH CENTRAL WISCONSIN

CITY           SKY/WX    TMP DP  RH WIND       PRES   REMARKS
WOODRUFF       CLOUDY    72  65  78 SE9       29.94R
RHINELANDER    CLOUDY    68  63  84 E9        29.94S
EAGLE RIVER    CLOUDY    71  63  77 E8        29.94S
LAND O LAKES   CLOUDY    68  63  83 SE7       29.96S
PHILLIPS       CLOUDY    70  66  86 SE8       29.91R
TOMAHAWK       CLOUDY    69  64  86 S3        29.94R
MEDFORD        CLOUDY    68  66  93 E8        29.91R
MERRILL        CLOUDY    68  66  92 E6        29.93R
$$

WIZ029-030-035-036-043>047-212100-
CENTRAL WISCONSIN

CITY           SKY/WX    TMP DP  RH WIND       PRES   REMARKS
WAUSAU         CLOUDY    68  65  90 SE12      29.92R
MOSINEE        CLOUDY    68  66  94 SE7       29.93R
MARSHFIELD     MOSUNNY   77  69  76 S12       29.89S
STEVENS POINT  CLOUDY    68  65  93 SE7       29.93S
WAUPACA        CLOUDY    72  70  92 SE6       29.93S
WAUTOMA        PTSUNNY   77  70  78 SE8       29.90F
WISC RAPIDS    MOSUNNY   80  68  66 S10       29.90F HX  83
CAMP DOUGLAS   CLOUDY    77  75  94 SE9       29.87F
$$

WIZ011>013-019>022-031-037>040-048>050-212100-
NORTHEAST WISCONSIN

CITY           SKY/WX    TMP DP  RH WIND       PRES   REMARKS
ANTIGO         CLOUDY    64  64  97 SE9       29.96R FOG
STURGEON BAY   CLOUDY    66  61  82 SE7       29.96F
GREEN BAY      CLOUDY    68  65  90 E9        29.92F
MANITOWOC      LGT RAIN  66  64  93 SE10      29.94F
APPLETON       PTSUNNY   70  66  88 SE8       29.94R
CLINTONVILLE   CLOUDY    70  64  83 SE8       29.93R
OSHKOSH        CLOUDY    73  69  87 S3        29.92R
$$

WIZ032>034-041-042-053>061-212100-
SOUTHWEST WISCONSIN

CITY           SKY/WX    TMP DP  RH WIND       PRES   REMARKS
LA CROSSE      PTSUNNY   82  71  69 S7        29.83S HX  86
SPARTA         PTSUNNY   79  68  69 SE8       29.86F HX  82
VIROQUA        CLOUDY    78  75  91 S9        29.88S
BOSCOBEL       CLOUDY    80  72  76 CALM      29.86F HX  84
PRAIRIE DU CHI CLOUDY    80  71  75 SE7       29.85S HX  83
PLATTEVILLE    PTSUNNY   76  73  89 SE10      29.89F
$$

WIZ056-057-062-063-064-067-068-212100-
SOUTH CENTRAL WISCONSIN

CITY           SKY/WX    TMP DP  RH WIND       PRES   REMARKS
BARABOO/DELLS  CLOUDY    74  69  82 S12       29.91R
LONE ROCK      CLOUDY    80  72  76 S7        29.89R HX  84
WATERTOWN      CLOUDY    74  72  95 SE8       29.91F
MADISON        CLOUDY    77  71  82 S15G21    29.90F
MIDDLETON      CLOUDY    77  74  90 S12       29.91R
MONROE         CLOUDY    73  72  94 S13G18    29.92S
JANESVILLE     LGT RAIN  73  72  94 SE10      29.92F
$$

WIZ051-052-058>065-066-070>072-212100-
SOUTHEAST WISCONSIN

CITY           SKY/WX    TMP DP  RH WIND       PRES   REMARKS
MILWAUKEE      CLOUDY    72  69  90 CALM      29.95R
WAUKESHA       PTSUNNY   70  68  94 E6        29.95F
MILWAUKEE/TIMM LGT RAIN  70  66  88 SE6       29.95F FOG
RACINE         CLOUDY    73  70  90 S5        29.98R FOG
BURLINGTON     RAIN      70  69  96 SE6       29.94F
KENOSHA        LGT RAIN  73  71  93 S6        29.97R
FOND DU LAC    CLOUDY    75  69  81 S7        29.91F
SHEBOYGAN      LGT RAIN  68  66  93 E8        29.92F FOG
WEST BEND      CLOUDY    70  66  88 SE5       29.93F
JUNEAU         CLOUDY    73  45  37 SE9       29.92F
$$

LSZ147-162-212100-
LAKE SUPERIOR

STATION/POSITION TIME  TEMP    WIND        PRES    WAVE
                       AIR SEA DIR/SP/G            HT/PER
                 (UTC) (F)     (DEG/KT/KT) (MB)    (FT/S)
W MID LAKE BUOY  1950   60 59   50/ 12/ 14 1013.2F   1/ 3
PORT WING        1900   65      40/ 17/ 19 1012.2R
SAXON HARBOR     1940   66      70/  4/ 11 1012.2R
$$

LMZ867-665-643>646-212100-
LAKE MICHIGAN

STATION/POSITION TIME  TEMP    WIND        PRES    WAVE
                       AIR SEA DIR/SP/G            HT/PER
                 (UTC) (F)     (DEG/KT/KT) (MB)    (FT/S)
N MID LAKE BUOY  1950   64 65  100/  4/  6 1014.8R   0
NORTHPORT PIER   1900   66     130/  8/  9 1014.9F
SISTER BAY       1911   70     150/  9/ 12   N/A
ALGOMA LAKESHORE 1823             CALM       N/A
KEWAUNEE LAKESHO 1900   65      90/  2/  3 1014.2F
SHEBOYGAN LAKESH 2000   66 65  110/ 12/ 14 1013.2F
ATWATER BUOY     1900   68      30/  4/  6 1015.8F
MILWAUKEE LAKESH 1900   69      10/  6/  7   N/A
S MID LAKE BUOY  1950   69 68  100/  8/ 10 1013.5F   0
KENOSHA   LAKESH 2000   73     210/  4/  9 1014.2R
$$

TC  - TEMPERATURE IN CELSIUS
VSB - VISIBILITY IN STATUTE MILES
WCI - WIND CHILL INDEX
HX  - HEAT INDEX




USA.gov is the U.S. government's official web portal to all federal, state and local government web resources and services.